[[{"header":{"parameterUnit":"m.s-1","parameterCategory":1,"la1":30.2991,"la2":30.254,"lo1":-89.0895,"lo2":-89.0444,"dy":0.0017,"dx":0.0017,"nx":28,"ny":28,"refTime":"2025-01-18T09:00:00:Z","depth":0,"parameterNumber":2,"parameterNumberName":"U-component_of_WINDS"},"data":[0,0,0,0,0,0,0,0,0,0,0,0,0,0,0,0,0,0,0,0,0,0,0,0,0,0,0,0,0,0,0,0,0,0,0,0,0,0,0,0,0,0,0,0,0,0,0,0,0,0,0,0,0,0,0,0,0,0,-2.4089,-2.4089,0,-2.4118,-2.4118,-2.4119,-2.4125,-2.4125,-2.4124,-2.4124,-2.4153,-2.4154,-2.4155,0,0,0,0,0,0,0,0,0,0,0,0,0,-2.4036,-2.4037,-2.4089,-2.4089,-2.4089,-2.4118,-2.4118,-2.4119,-2.4125,-2.4125,-2.4124,-2.4124,-2.4153,-2.4154,-2.4155,0,0,0,0,0,0,0,0,0,0,0,0,0,-2.4061,-2.4037,-2.4089,-2.4096,-2.4097,-2.4118,-2.4118,-2.4119,-2.4125,-2.4125,-2.4124,-2.4124,-2.4153,-2.4154,-2.4155,-2.4171,0,0,-2.416,-2.4161,0,0,0,0,0,0,0,0,-2.406,-2.4063,-2.4094,-2.4095,-2.4097,-2.4118,-2.4111,-2.4136,-2.4125,-2.4114,-2.4124,-2.4124,-2.4142,-2.4144,-2.415,-2.4172,-2.4174,-2.416,-2.4161,-2.4162,-2.4162,0,0,0,0,0,0,0,-2.4058,-2.4062,-2.41,-2.4095,-2.4096,-2.4097,-2.41,-2.4115,-2.4129,-2.4115,-2.4116,-2.4119,-2.4142,-2.4149,-2.4151,-2.4174,-2.416,-2.4161,-2.4162,-2.4163,-2.4209,-2.4209,0,0,0,0,0,0,-2.4055,-2.4061,-2.4099,-2.4101,-2.4077,-2.4098,-2.4102,-2.4111,-2.4129,-2.4132,-2.4119,-2.4119,-2.4146,-2.4149,-2.4152,-2.417,-2.4162,-2.4163,-2.4164,-2.4209,-2.4209,-2.421,0,0,0,0,0,0,-2.4054,-2.4059,-2.4098,-2.4081,-2.4086,-2.41,-2.411,-2.4112,-2.4119,-2.4132,-2.4135,-2.4124,-2.4146,-2.415,-2.4166,-2.4172,-2.4164,-2.4165,-2.4208,-2.4209,-2.4209,-2.4208,0,0,0,0,0,0,-2.4053,-2.4058,-2.4065,-2.4081,-2.4087,-2.4112,-2.411,-2.4113,-2.4121,-2.4121,-2.4137,-2.4139,-2.4146,-2.4164,-2.4167,-2.4173,-2.4166,-2.4208,-2.4209,-2.4209,-2.4208,-2.4208,-2.4209,0,0,0,0,0,-2.4051,-2.4063,-2.4065,-2.407,-2.4096,-2.4113,-2.4116,-2.4124,-2.4122,-2.4128,-2.4137,-2.4139,-2.417,-2.4165,-2.417,-2.4176,-2.4208,-2.4208,-2.4209,-2.4207,-2.4208,-2.4209,0,0,0,0,0,0,-2.4047,-2.4066,-2.4068,-2.4086,-2.4098,-2.4114,-2.4122,-2.4125,-2.4137,-2.4137,-2.4146,-2.4149,-2.4164,-2.4172,-2.4166,-2.4191,-2.4189,-2.419,-2.4186,-2.4187,-2.4188,-2.4185,-2.4167,0,0,0,0,0,-2.4049,-2.4062,-2.4077,-2.4091,-2.4097,-2.4108,-2.4116,-2.4121,-2.4133,-2.4138,-2.4148,-2.416,-2.4172,-2.418,-2.4192,-2.4209,-2.4212,-2.4215,-2.4216,-2.4216,-2.4218,-2.4226,-2.4227,-2.4212,-2.4212,-2.4212,0,0,-2.4052,-2.4063,-2.4071,-2.4091,-2.4101,-2.4113,-2.4113,-2.4126,-2.4135,-2.414,-2.4156,-2.4164,-2.4177,-2.4193,-2.42,-2.42,-2.4222,-2.4217,-2.4218,-2.4219,-2.4227,-2.4228,-2.4229,-2.4213,-2.4213,-2.4213,0,0,-2.4063,-2.4074,-2.4087,-2.4096,-2.4111,-2.4118,-2.4121,-2.4136,-2.4141,-2.4157,-2.4161,-2.4172,-2.4193,-2.4202,-2.4209,-2.4223,-2.4225,-2.4227,-2.4231,-2.4238,-2.424,-2.4241,-2.4245,-2.4246,-2.4228,-2.4228,-2.4228,0,-2.4065,-2.4085,-2.4093,-2.4106,-2.4114,-2.4119,-2.4132,-2.4141,-2.4158,-2.4163,-2.4162,-2.4188,-2.4198,-2.4215,-2.4219,-2.4225,-2.4228,-2.4225,-2.4239,-2.424,-2.4241,-2.4245,-2.4247,-2.4228,-2.4228,-2.4228,-2.4228,0,-2.4085,-2.4099,-2.4107,-2.4124,-2.4133,-2.4146,-2.4155,-2.4163,-2.4167,-2.4174,-2.419,-2.4201,-2.4215,-2.422,-2.4224,-2.4238,-2.4237,-2.4237,-2.4235,-2.4242,-2.4246,-2.4248,-2.4228,-2.4228,-2.4228,-2.4228,0,0,-2.4096,-2.4117,-2.4119,-2.4127,-2.4142,-2.4152,-2.4165,-2.4179,-2.4185,-2.4197,-2.4207,-2.4224,-2.4224,-2.4232,-2.4238,-2.4245,-2.4253,-2.4244,-2.4244,-2.4245,-2.4268,-2.4267,-2.4269,-2.4255,-2.4255,-2.4256,-2.4267,0,-2.4109,-2.4131,-2.4139,-2.4157,-2.4169,-2.4174,-2.4184,-2.4195,-2.4201,-2.4212,-2.4219,-2.4231,-2.4231,-2.4236,-2.4243,-2.4251,-2.4258,-2.425,-2.4264,-2.4264,-2.426,-2.4271,-2.4271,-2.428,-2.4268,-2.4269,-2.4269,0,-2.4127,-2.4139,-2.4158,-2.4171,-2.4176,-2.4186,-2.4199,-2.4209,-2.422,-2.4225,-2.4233,-2.4238,-2.425,-2.4247,-2.4264,-2.4258,-2.4264,-2.4268,-2.4269,-2.427,-2.4267,-2.4272,-2.4284,-2.4285,-2.4271,-2.4271,-2.4271,0,-2.4131,-2.4152,-2.4166,-2.4172,-2.4188,-2.4195,-2.4202,-2.4213,-2.422,-2.4231,-2.4236,-2.4248,-2.4255,-2.4264,-2.4271,-2.4268,-2.4287,-2.4284,-2.429,-2.429,-2.4293,-2.4293,-2.4306,-2.4298,-2.4298,-2.4298,-2.4298,0,-2.4144,-2.4156,-2.4168,-2.4177,-2.4189,-2.4197,-2.421,-2.4217,-2.4227,-2.4236,-2.4241,-2.425,-2.4259,-2.4269,-2.4275,-2.4287,-2.429,-2.4293,-2.4295,-2.4293,-2.4292,-2.4296,-2.4296,-2.4298,-2.4298,-2.4298,-2.4298,0,-2.4151,-2.416,-2.4176,-2.4189,-2.4193,-2.4202,-2.4213,-2.4221,-2.4228,-2.424,-2.4243,-2.4254,-2.4266,-2.4274,-2.4289,-2.4293,-2.4306,-2.4307,-2.4302,-2.4302,-2.4307,-2.4306,-2.4322,-2.4325,-2.4316,-2.4316,-2.4316,0,-2.4159,-2.4168,-2.4182,-2.4189,-2.4196,-2.4207,-2.4214,-2.4223,-2.423,-2.4243,-2.425,-2.4262,-2.4272,-2.429,-2.4299,-2.431,-2.4311,-2.4316,-2.4313,-2.431,-2.431,-2.431,-2.431,-2.4317,-2.4317,-2.4317,-2.4317,0,-2.4171,-2.4174,-2.4185,-2.4197,-2.4206,-2.4216,-2.4226,-2.4231,-2.4241,-2.4249,-2.4261,-2.4268,-2.4283,-2.4295,-2.4307,-2.4314,-2.4316,-2.4318,-2.4319,-2.4317,-2.4313,-2.4315,-2.4302,-2.4317,-2.4317,-2.4317,-2.4317,-2.4317,-2.4178,-2.4185,-2.4196,-2.4208,-2.4216,-2.4225,-2.4233,-2.4241,-2.4251,-2.4264,-2.4268,-2.428,-2.4291,-2.4307,-2.4314,-2.4323,-2.4323,-2.4325,-2.4326,-2.4326,-2.4326,-2.4312,-2.4325,-2.4325,-2.4325,-2.4325,-2.4325,0,-2.4189,-2.4196,-2.4207,-2.422,-2.4229,-2.4231,-2.4242,-2.4249,-2.426,-2.4269,-2.4279,-2.4292,-2.4303,-2.4313,-2.4324,-2.433,-2.4331,-2.4332,-2.4332,-2.4333,-2.4326,-2.4323,-2.4331,-2.4331,-2.4331,-2.4331,-2.4331,-2.4331,-2.4196,-2.4208,-2.4213,-2.423,-2.4237,-2.4249,-2.4255,-2.4263,-2.427,-2.4285,-2.4294,-2.43,-2.431,-2.4322,-2.4332,-2.4334,-2.4338,-2.4338,-2.4341,-2.4334,-2.4334,-2.4333,-2.433,-2.4339,-2.4339,-2.4347,-2.4347,-2.4347]},{"header":{"parameterUnit":"m.s-1","parameterCategory":1,"la1":30.2991,"la2":30.254,"lo1":-89.0895,"lo2":-89.0444,"dy":0.0017,"dx":0.0017,"nx":28,"ny":28,"refTime":"2025-01-18T09:00:00:Z","depth":0,"parameterNumber":3,"parameterNumberName":"V-component_of_WINDS"},"data":[0,0,0,0,0,0,0,0,0,0,0,0,0,0,0,0,0,0,0,0,0,0,0,0,0,0,0,0,0,0,0,0,0,0,0,0,0,0,0,0,0,0,0,0,0,0,0,0,0,0,0,0,0,0,0,0,0,0,4.4256,4.4257,0,4.4382,4.4383,4.4385,4.4396,4.4394,4.4393,4.4392,4.4522,4.4526,4.4531,0,0,0,0,0,0,0,0,0,0,0,0,0,4.4026,4.4031,4.4256,4.4257,4.4259,4.4382,4.4383,4.4385,4.4396,4.4394,4.4392,4.4391,4.452,4.4526,4.4532,0,0,0,0,0,0,0,0,0,0,0,0,0,4.4137,4.4032,4.4255,4.4279,4.4282,4.4381,4.4383,4.4386,4.4396,4.4394,4.4392,4.439,4.4518,4.4525,4.4532,4.4617,0,0,4.4554,4.4557,0,0,0,0,0,0,0,0,4.413,4.4145,4.4274,4.4277,4.4281,4.4371,4.435,4.4463,4.4397,4.4353,4.4391,4.4389,4.4473,4.4484,4.4512,4.4623,4.4629,4.4555,4.4559,4.4562,4.4564,0,0,0,0,0,0,0,4.4123,4.414,4.4306,4.4276,4.428,4.4284,4.4297,4.4372,4.4423,4.4357,4.4358,4.4372,4.4475,4.4505,4.4515,4.463,4.4554,4.4561,4.4565,4.4568,4.482,4.4823,0,0,0,0,0,0,4.411,4.4133,4.4302,4.4309,4.4199,4.429,4.4305,4.4344,4.4422,4.4432,4.4374,4.4372,4.4494,4.4507,4.452,4.4627,4.4562,4.4569,4.4573,4.4818,4.4821,4.4824,0,0,0,0,0,0,4.4105,4.4125,4.4296,4.4222,4.4244,4.4296,4.434,4.4348,4.4378,4.4435,4.4445,4.4395,4.4493,4.451,4.4593,4.4631,4.4572,4.4578,4.4815,4.4819,4.4822,4.4839,0,0,0,0,0,0,4.4099,4.4123,4.4155,4.4222,4.4248,4.4367,4.4342,4.4352,4.439,4.4389,4.4458,4.4467,4.4493,4.4583,4.46,4.464,4.4584,4.4812,4.4817,4.4821,4.4836,4.4843,4.485,0,0,0,0,0,4.4091,4.4155,4.4157,4.4177,4.4289,4.4369,4.4384,4.4411,4.4393,4.4427,4.4464,4.4465,4.4624,4.4591,4.4611,4.4654,4.481,4.4815,4.4821,4.4833,4.4842,4.485,0,0,0,0,0,0,4.4091,4.4164,4.4167,4.4255,4.4306,4.4371,4.4414,4.442,4.4477,4.4474,4.4506,4.4522,4.4605,4.4637,4.4599,4.4741,4.4715,4.4725,4.4717,4.4726,4.4733,4.4725,4.459,0,0,0,0,0,4.4101,4.416,4.422,4.4292,4.4317,4.4361,4.4397,4.4414,4.4468,4.449,4.4533,4.4586,4.4649,4.4689,4.4749,4.484,4.4857,4.4879,4.4886,4.4891,4.49,4.4954,4.4966,4.4842,4.4842,4.4841,0,0,4.4123,4.417,4.4205,4.4293,4.4335,4.4397,4.4379,4.4444,4.4491,4.45,4.4583,4.4616,4.4677,4.4766,4.4807,4.4795,4.4938,4.4898,4.4902,4.4908,4.4961,4.4972,4.4983,4.4845,4.4845,4.4844,0,0,4.4195,4.4235,4.4301,4.4343,4.4406,4.4435,4.4451,4.4516,4.4539,4.4621,4.4631,4.4686,4.4792,4.4836,4.4873,4.4963,4.4968,4.4981,4.5019,4.5071,4.5081,4.5089,4.5125,4.5137,4.499,4.499,4.499,0,4.4215,4.4307,4.4334,4.44,4.444,4.445,4.4518,4.4558,4.4638,4.4665,4.4651,4.4785,4.4827,4.4928,4.495,4.4978,4.4999,4.4975,4.5077,4.5086,4.5095,4.5129,4.5142,4.4991,4.4991,4.4991,4.4991,0,4.433,4.4394,4.4439,4.4517,4.4561,4.4627,4.4665,4.4707,4.472,4.4751,4.4837,4.4887,4.4959,4.4984,4.4997,4.5087,4.5079,4.507,4.5045,4.5108,4.5141,4.5153,4.4993,4.4993,4.4992,4.4992,0,0,4.4407,4.4499,4.4515,4.4552,4.4623,4.4673,4.474,4.4811,4.4848,4.4902,4.4961,4.5051,4.5044,4.5086,4.5104,4.5149,4.5221,4.5135,4.5137,4.5152,4.5328,4.5336,4.535,4.5224,4.5226,4.5228,4.5324,0,4.4489,4.461,4.4636,4.4741,4.4802,4.4814,4.4873,4.4924,4.4954,4.5011,4.5045,4.511,4.5094,4.512,4.5165,4.5203,4.5258,4.5196,4.5282,4.5284,4.5269,4.5367,4.5376,4.5463,4.5336,4.5338,4.534,0,4.4602,4.466,4.4771,4.4836,4.4862,4.4915,4.4983,4.5037,4.5095,4.5114,4.5161,4.5175,4.5248,4.5217,4.5319,4.5276,4.5313,4.5337,4.5341,4.5353,4.5318,4.5384,4.5491,4.5506,4.536,4.5358,4.5357,0,4.4651,4.4757,4.4837,4.4868,4.4945,4.4982,4.5016,4.5072,4.5114,4.5173,4.5201,4.5267,4.5304,4.5356,4.5389,4.5363,4.5489,4.546,4.5509,4.5509,4.5538,4.5536,4.5655,4.5556,4.5555,4.5555,4.5555,0,4.4743,4.4811,4.4861,4.4911,4.4988,4.5018,4.5094,4.5128,4.5178,4.5236,4.5249,4.5303,4.5341,4.5401,4.5426,4.5509,4.5525,4.5544,4.5551,4.5545,4.5543,4.5571,4.5567,4.5559,4.5558,4.5557,4.5557,0,4.4812,4.4848,4.4937,4.5003,4.5021,4.5075,4.5132,4.5182,4.5213,4.5286,4.5305,4.5354,4.5425,4.5462,4.555,4.5568,4.5662,4.5663,4.5642,4.5646,4.5694,4.569,4.5838,4.586,4.5743,4.5744,4.5745,0,4.4869,4.4922,4.4994,4.5034,4.5068,4.5132,4.5174,4.5206,4.525,4.5322,4.5363,4.5435,4.5495,4.5609,4.5653,4.5722,4.5727,4.5774,4.5737,4.5731,4.5732,4.5729,4.5736,4.5781,4.5782,4.5783,4.5784,0,4.4969,4.4984,4.5045,4.5113,4.5163,4.5218,4.5272,4.5303,4.5344,4.5393,4.5467,4.5513,4.5604,4.5677,4.5749,4.5785,4.5793,4.5795,4.581,4.5807,4.5794,4.5805,4.5663,4.5792,4.5791,4.5791,4.579,4.579,4.5037,4.5085,4.5144,4.5212,4.5255,4.5306,4.5357,4.5394,4.5456,4.5533,4.5547,4.5626,4.5685,4.5783,4.5821,4.5884,4.5874,4.5896,4.5902,4.5908,4.5912,4.5781,4.5897,4.5896,4.5896,4.5896,4.5896,0,4.514,4.5178,4.524,4.5316,4.537,4.537,4.543,4.5476,4.5545,4.5599,4.5657,4.5743,4.5814,4.5863,4.5936,4.5977,4.5982,4.5995,4.5994,4.6003,4.5915,4.5896,4.5989,4.5989,4.5989,4.5989,4.5989,4.5989,4.52,4.5284,4.5306,4.5412,4.545,4.5527,4.5562,4.5609,4.5653,4.5748,4.5807,4.5838,4.5891,4.5968,4.6033,4.6046,4.6074,4.6087,4.6101,4.6018,4.6008,4.5999,4.5982,4.6092,4.6092,4.6184,4.6185,4.6185]}]]